Regional Weather Roundup
Issued by NWS Sioux Falls, SD

Home | Current Version | Previous Version | Text Only | Print | Product List | Glossary On
Versions: 1 2 3 4 5 6 7 8 9 10 11 12 13 14 15 16 17 18 19 20 21 22 23 24 25 26 27 28 29 30 31 32 33 34 35 36 37 38 39 40 41 42 43 44 45 46 47 48 49 50
000
ASUS43 KFSD 020710
RWRFSD

WEATHER ROUNDUP FOR SE SOUTH DAKOTA/SW MINNESOTA/NW IOWA
NATIONAL WEATHER SERVICE SIOUX FALLS SD
200 AM CDT SAT AUG 02 2014

NOTE: "FAIR" INDICATES FEW OR NO CLOUDS BELOW 12,000 FEET WITH NO
SIGNIFICANT WEATHER AND OR OBSTRUCTIONS TO VISIBILITY.


SDZ038>040-050-052>070-020800-
SOUTHEAST SOUTH DAKOTA

CITY           SKY/WX    TMP DP  RH WIND       PRES   REMARKS
CHAMBERLAIN    MOCLDY    64  60  85 S10       30.06S
HURON          CLOUDY    67  57  70 SE7       30.06F
MADISON        FAIR      63  63 100 S3        30.14S
MITCHELL       CLOUDY    69  59  70 S8        30.08F
SIOUX FALLS    MOCLDY    63  58  83 CALM      30.13R
WINNER         FAIR      66  59  78 SE14      30.09S
YANKTON        CLOUDY    64  61  88 CALM      30.14F
$$

MNZ071-072-080-081-089-090-097-098-020800-
SOUTHWEST MINNESOTA

CITY           SKY/WX    TMP DP  RH WIND       PRES   REMARKS
FAIRMONT       CLEAR     61  54  77 SW3       30.13S
JACKSON        CLEAR     61  55  82 S3        30.14S
LUVERNE        PTCLDY    61  57  88 CALM      30.14S FOG
MARSHALL       CLEAR     63  57  82 SW8       30.10S
MONTEVIDEO     CLEAR     64  61  88 CALM      30.10F
PIPESTONE      MOCLDY    64  57  77 CALM      30.14S
REDWOOD FALLS  CLEAR     68  60  75 SW6       30.10S
TRACY          CLEAR     66  59  77 SW8       30.12S
WINDOM         CLEAR     61  57  88 CALM      30.13S
WORTHINGTON    CLEAR     63  57  82 SW6       30.15S
$$

IAZ001>003-012>014-020>022-031-032-NEZ013-014-SDZ071-020800-
NORTHWEST IOWA

CITY           SKY/WX    TMP DP  RH WIND       PRES   REMARKS
CHEROKEE       PTCLDY    59  59 100 CALM      30.14R
DENISON        CLEAR     59  59 100 CALM      30.11F
ESTHERVILLE    CLEAR     58  57  97 CALM      30.13S
LE MARS        PTCLDY    57  57 100 CALM      30.14R
ORANGE CITY    PTCLDY    66  55  68 CALM      30.14R
SHELDON        PTCLDY    57  55  94 E3        30.12F
SIOUX CITY     MOCLDY    62  60  93 CALM      30.13R
SPENCER        CLEAR     60  56  86 N3        30.13S
STORM LAKE     CLEAR     61  59  94 S5        30.14S
$$

ABBREVIATIONS USED IN REMARKS
   TC - TEMPERATURE IN CELSIUS
  WCI - WIND CHILL INDEX
   HX - HEAT INDEX
  VSB - VISIBILITY




USA.gov is the U.S. government's official web portal to all federal, state and local government web resources and services.